Theta_e
311 310 310 313 315 317 318 318 313 315 316 310 312 313 315 318 319 318 318 321 317 332 341 338 341 343 346 345 347 347 349 351 347 344 342 349 349 348 350 349 349 348 348 346 341 339 340 333 332 333 331 326 316 328 335 337 338 338 339 338 338 337 338 339 341 341 341 342 342 343 343 343 343 343 342 342 342 342 343 343 343 342 341 340 340 339 337 337 338 339 339 339 339 338 336 333 333
310 310 311 314 315 316 318 317 314 314 313 309 313 315 316 319 319 318 319 324 325 340 347 343 344 344 345 345 346 347 349 349 346 348 349 348 347 349 350 349 349 348 347 345 341 341 343 336 333 333 331 328 317 324 335 337 337 339 339 339 339 339 340 341 341 341 342 342 342 343 343 343 343 343 342 342 342 342 342 342 342 342 341 341 340 339 338 337 339 339 339 339 339 338 336 336 336
310 310 311 315 316 316 318 316 313 311 310 308 311 317 318 317 318 318 325 332 335 342 344 344 346 345 344 344 346 348 351 348 346 348 348 348 348 349 349 349 348 348 347 344 341 341 343 337 333 335 332 330 319 320 334 337 336 338 339 340 339 340 342 342 342 342 342 342 343 343 343 343 342 342 342 342 342 342 341 341 341 340 341 341 341 340 339 339 339 339 339 339 338 338 338 338 337
310 312 313 316 316 316 319 315 314 311 308 308 309 316 318 317 318 317 327 337 341 344 342 345 348 346 345 346 347 348 350 348 348 348 347 348 348 349 349 348 348 347 346 344 341 341 343 336 334 336 332 332 322 317 329 335 336 338 339 339 339 340 342 342 342 342 342 342 342 343 342 342 342 341 341 341 341 341 341 341 340 339 339 340 341 340 340 339 339 338 337 338 338 337 337 335 334
312 316 315 315 316 315 318 315 316 312 307 310 309 314 317 316 318 317 322 325 332 341 341 345 348 346 347 348 347 348 350 348 348 348 348 348 348 349 348 348 348 347 346 344 341 343 342 335 334 337 333 332 325 318 322 331 335 337 339 339 339 341 341 342 342 342 342 342 342 342 342 341 341 341 341 341 341 341 341 340 339 338 336 335 336 338 339 338 338 336 335 337 338 336 334 331 329
313 317 315 314 316 314 315 313 313 312 311 314 312 314 316 316 317 316 317 317 326 336 338 344 346 347 349 347 346 347 347 348 348 348 349 348 348 348 348 348 347 346 345 344 342 343 342 336 334 336 335 333 327 320 318 327 336 338 338 339 339 340 341 342 343 342 342 342 342 341 342 341 341 341 341 340 340 339 338 338 337 336 334 333 332 333 334 336 336 334 334 336 335 332 330 328 327
313 315 314 314 314 313 315 311 311 313 313 315 314 315 315 315 315 316 317 317 329 338 342 345 345 349 350 347 346 346 346 347 348 348 349 348 348 348 348 347 346 346 345 343 342 343 342 335 333 336 335 334 329 322 319 327 335 337 338 338 339 340 342 343 343 342 342 342 342 342 342 342 342 342 341 340 338 338 337 335 334 333 334 333 331 331 332 333 333 334 334 332 329 328 327 326 327
313 314 313 314 315 313 314 312 312 313 313 313 314 315 315 315 315 316 317 316 321 332 345 348 346 350 350 347 347 347 347 348 349 349 349 348 348 347 347 347 346 346 345 343 343 344 341 335 333 335 334 334 331 324 324 331 335 336 338 338 338 340 342 343 342 342 342 342 342 342 342 342 342 341 340 338 337 336 335 334 333 331 331 331 331 330 329 328 326 329 329 326 326 326 325 326 329
314 313 312 314 314 312 313 312 312 312 313 312 313 314 316 316 315 316 316 317 315 323 344 348 345 349 349 348 347 346 347 349 349 350 349 349 349 348 347 347 346 345 345 344 343 344 342 337 334 334 334 334 331 326 327 334 335 336 337 338 339 340 341 342 342 342 342 342 342 342 342 342 341 340 339 337 335 333 330 329 329 329 328 326 326 325 322 321 320 321 322 322 324 324 325 328 331
314 312 312 314 312 312 311 311 312 311 312 312 313 313 314 314 314 316 314 316 314 325 347 347 345 348 348 349 348 346 348 350 350 350 349 349 349 348 347 347 346 345 344 344 344 343 342 339 335 334 335 333 332 330 329 333 335 336 337 338 340 340 341 342 342 342 341 342 342 342 342 341 340 340 339 337 334 331 327 326 328 330 329 324 322 322 319 319 319 319 320 322 324 326 328 330 332
314 312 311 312 311 310 309 310 311 311 312 312 312 313 313 313 313 314 314 315 313 329 349 347 348 349 348 350 347 346 348 350 350 350 349 348 348 347 347 346 346 345 344 344 344 343 342 341 338 335 335 334 333 332 330 331 333 335 337 337 338 340 341 341 341 341 341 342 342 342 341 341 340 340 338 337 336 333 328 326 331 332 330 327 322 322 320 320 319 318 320 324 327 329 330 331 332
314 313 312 312 311 310 310 310 311 313 313 312 313 313 314 313 313 314 314 315 314 330 349 348 347 348 348 349 347 345 347 349 350 349 349 348 348 347 347 347 346 345 344 344 344 343 343 343 341 338 337 336 334 332 330 331 332 333 334 336 336 338 340 340 341 341 341 342 342 342 341 341 340 339 338 338 337 335 331 327 331 332 331 329 322 320 321 320 319 319 323 327 329 330 331 332 332
314 313 313 312 311 311 311 311 311 314 314 313 313 312 312 312 314 315 314 315 316 326 342 347 345 347 349 349 347 346 346 348 349 348 348 347 347 347 347 346 345 344 344 344 344 343 343 343 342 341 339 337 336 335 332 332 334 332 333 334 335 337 339 340 340 340 341 341 341 341 341 340 340 339 338 338 336 335 332 328 329 332 332 329 323 320 321 321 321 323 326 329 330 331 332 332 332
315 312 313 311 310 311 311 311 311 312 312 313 313 311 311 312 313 314 315 315 317 327 341 347 344 348 351 350 349 346 347 347 347 347 347 347 346 346 346 346 345 344 344 344 344 343 343 343 343 342 340 339 338 337 335 333 335 334 332 333 333 335 338 340 340 340 341 340 340 340 339 340 339 339 337 337 335 333 332 329 328 331 332 331 327 320 319 322 323 325 328 329 330 331 332 332 332
314 310 313 313 310 310 310 311 311 310 311 312 311 311 311 313 315 316 315 313 325 338 346 347 344 347 350 351 351 346 346 346 346 346 346 345 345 345 345 345 344 344 344 344 344 343 343 343 343 342 341 341 339 339 337 335 335 334 332 331 333 334 337 339 340 340 341 340 339 339 339 339 338 337 335 335 335 334 332 330 328 329 330 331 329 322 318 321 323 326 328 329 330 331 331 332 332
313 311 313 313 310 310 310 310 311 310 312 312 310 311 311 316 325 326 321 320 337 347 347 347 345 346 347 348 349 345 345 346 345 345 345 345 344 345 344 344 344 343 344 344 343 343 343 342 342 342 341 340 340 339 337 336 334 333 332 331 332 335 336 338 339 339 339 339 338 338 338 338 338 336 334 335 336 335 333 331 328 328 329 329 329 323 318 320 323 325 328 328 329 330 332 333 332
311 313 314 313 311 310 310 311 311 310 312 312 310 311 310 322 339 340 334 335 346 349 347 348 346 345 346 346 346 345 345 345 344 344 344 344 344 343 343 344 344 344 343 343 343 342 342 342 341 341 340 340 339 337 336 336 333 332 333 331 332 335 336 336 336 336 336 337 337 336 337 336 336 335 335 336 336 335 334 332 330 328 329 329 329 326 321 319 322 324 327 328 328 329 331 333 333
313 316 315 313 312 311 310 311 311 310 312 312 311 311 310 328 347 345 344 347 348 348 348 347 347 346 346 347 346 345 344 343 344 343 343 343 343 343 343 343 343 343 343 343 342 342 341 341 341 340 340 339 339 336 335 336 333 332 333 332 333 335 335 335 335 335 336 337 336 336 336 336 335 335 336 336 336 335 334 334 333 329 328 329 329 329 325 320 320 323 326 327 327 328 331 333 334
316 316 314 313 313 311 310 310 310 309 311 312 311 311 310 325 343 345 347 349 349 350 351 348 347 347 345 346 346 345 344 343 343 342 343 342 342 342 342 342 343 342 342 342 341 341 341 341 340 340 339 339 337 335 334 335 334 333 333 333 333 333 334 334 335 336 336 337 337 336 336 335 335 335 335 334 334 335 334 336 336 332 329 328 329 329 329 324 320 320 323 326 326 327 330 332 334
316 315 315 315 313 311 310 309 310 310 311 313 312 311 311 316 331 344 348 348 350 351 351 350 350 349 346 345 345 345 343 343 343 342 343 342 342 342 342 342 342 342 342 341 341 340 340 340 340 340 339 337 335 333 335 336 333 332 333 333 333 334 334 333 334 335 335 336 335 335 334 333 333 332 331 329 331 333 333 334 336 336 332 329 328 329 329 328 324 321 321 323 325 325 328 332 333
315 314 316 314 312 313 313 311 311 311 310 312 311 311 313 312 321 341 349 348 350 349 350 349 349 349 346 345 345 345 344 343 343 342 343 342 343 343 342 342 341 342 341 340 340 340 340 340 339 339 338 336 334 333 335 336 334 333 333 333 333 334 335 333 334 334 334 335 334 334 333 332 333 333 333 331 333 334 333 332 333 333 332 330 329 329 328 329 328 325 321 321 323 324 328 332 333
314 315 316 313 311 314 315 313 312 312 310 310 312 312 313 313 323 342 348 347 349 347 347 347 347 347 345 346 345 344 343 343 343 343 343 343 343 343 342 341 341 341 340 340 339 339 339 339 339 337 336 335 334 334 334 335 334 333 334 334 334 334 335 334 334 334 334 334 334 334 334 334 335 336 336 336 338 337 336 334 333 331 329 328 329 329 329 329 329 328 325 322 321 323 327 331 332
314 314 314 313 313 314 315 313 312 311 310 311 312 312 310 316 333 346 346 347 348 345 346 346 346 346 345 345 344 343 342 342 343 343 343 343 343 343 342 341 340 340 340 340 339 339 338 338 337 336 335 334 334 334 334 334 333 334 334 335 335 333 333 333 334 334 334 333 332 332 334 336 337 337 337 337 338 338 338 338 337 336 334 331 329 328 328 328 329 329 328 325 322 322 326 330 331
313 313 313 313 313 314 314 313 312 310 311 313 311 310 309 314 333 346 349 349 347 346 345 344 345 346 345 344 343 343 342 343 343 343 343 343 343 342 342 340 339 339 339 339 338 338 337 337 336 335 335 334 333 334 334 334 333 333 334 335 334 333 334 334 334 334 334 333 331 332 334 335 335 336 336 337 337 337 338 338 339 339 338 336 334 332 328 326 327 328 329 327 325 324 326 329 330
313 313 312 313 312 313 313 311 312 311 311 312 308 312 321 323 334 348 350 349 347 346 345 344 345 345 345 344 343 343 343 344 344 343 343 342 342 341 341 340 338 338 338 338 338 337 337 336 336 335 334 334 334 334 334 334 333 334 334 334 333 334 335 334 333 333 333 333 332 333 334 334 335 335 336 337 337 338 338 338 338 339 338 338 337 336 334 329 326 326 328 329 327 327 328 329 329
313 313 312 313 314 313 313 312 313 312 311 311 309 324 342 338 341 351 349 349 347 345 345 344 345 346 345 344 343 344 343 344 344 343 343 342 341 341 340 340 338 338 337 337 337 337 336 335 335 335 334 334 334 334 334 334 333 334 335 334 334 335 334 332 332 332 333 334 333 333 334 335 336 337 338 337 337 338 338 338 338 339 338 338 338 338 337 335 331 326 326 328 329 329 330 330 329
312 313 312 313 314 313 312 312 313 311 310 312 309 327 347 339 340 351 349 348 346 345 346 345 346 347 345 344 343 344 344 345 345 343 342 341 341 340 340 339 338 337 337 337 336 336 336 335 335 335 334 334 334 334 334 334 334 335 335 335 335 335 334 333 334 335 336 336 336 336 337 337 337 337 337 337 337 337 338 338 338 338 338 338 338 338 338 337 336 332 327 327 328 329 330 330 330
310 311 312 312 311 311 310 311 311 310 312 312 309 324 344 338 336 350 351 347 346 346 347 345 346 347 345 345 344 344 345 344 343 343 343 342 341 341 339 338 338 338 337 336 336 336 336 336 336 336 335 335 335 335 335 335 335 335 335 336 336 335 336 337 338 338 338 338 338 338 338 338 337 337 336 337 336 336 336 337 338 338 338 338 338 337 337 337 337 336 333 329 327 327 329 329 329
308 309 311 311 310 311 311 311 310 312 312 313 314 323 338 338 336 348 350 346 347 347 348 347 346 347 346 347 345 343 344 344 342 342 343 342 341 340 339 338 338 338 338 337 336 336 336 337 338 338 337 336 335 335 335 336 336 336 336 337 337 337 338 339 339 339 339 338 338 337 337 337 336 336 336 336 336 336 337 337 337 337 338 338 337 336 337 337 337 337 336 335 332 329 329 330 329
308 308 310 311 312 312 312 310 310 313 311 315 320 318 324 332 337 347 350 347 348 347 349 348 346 348 347 346 342 337 337 338 338 340 342 341 341 339 339 339 339 339 339 337 337 337 338 338 338 339 339 338 336 335 336 337 338 338 338 339 339 339 339 339 339 338 338 337 337 336 336 336 336 336 336 336 336 336 336 336 336 336 337 337 337 337 337 337 337 337 337 336 336 334 332 332 330
309 309 310 311 312 313 311 309 310 313 312 315 320 313 313 330 341 348 347 343 347 348 348 347 348 348 345 342 338 334 333 334 335 338 341 341 341 340 339 339 339 340 339 339 338 338 339 339 339 339 339 339 337 336 337 338 339 339 339 339 339 339 339 337 337 338 337 337 336 336 336 336 336 336 336 335 335 335 334 334 335 335 335 336 336 337 337 337 337 337 337 336 336 336 334 333 332
309 309 310 309 310 312 311 310 311 313 313 312 316 313 312 331 343 342 336 334 341 347 348 347 348 347 342 340 338 335 333 333 335 337 339 341 341 340 340 340 339 340 340 339 338 338 339 339 339 339 339 340 339 338 339 339 339 339 340 339 339 338 337 337 337 337 336 336 336 336 336 336 336 336 335 335 335 335 335 335 335 335 335 335 336 336 336 337 336 336 336 336 336 335 334 334 334
308 309 312 310 310 311 311 311 310 311 313 311 312 313 317 335 343 339 333 335 340 347 350 348 348 345 340 338 337 334 333 335 337 337 338 341 341 341 340 340 340 340 340 340 339 339 339 339 340 340 339 340 339 339 339 339 339 339 339 338 338 337 337 337 336 336 336 336 336 336 337 336 336 336 336 336 336 336 336 336 336 336 335 335 335 335 335 335 335 334 334 334 335 334 335 334 334
308 309 311 309 309 310 311 311 309 309 312 313 313 315 326 339 343 338 335 336 340 345 348 349 348 344 338 337 336 335 335 338 339 338 339 340 341 342 341 341 340 340 340 340 339 338 339 339 339 339 339 339 339 338 339 339 339 339 338 338 337 337 337 337 336 336 336 337 337 337 337 337 337 337 337 337 337 337 337 337 337 337 336 335 335 334 334 334 333 333 333 333 333 333 333 334 334
310 310 311 309 309 309 311 311 309 309 311 313 313 316 333 343 343 338 335 337 340 343 346 349 347 341 335 333 336 337 338 340 340 339 339 340 341 341 341 341 340 340 340 339 338 338 339 338 338 339 339 338 338 339 339 339 339 338 338 337 337 337 337 337 337 337 337 337 337 337 337 337 337 337 337 337 337 337 337 337 337 337 337 335 333 333 334 333 333 333 333 333 333 332 333 333 333
310 310 311 310 310 309 310 310 308 309 311 314 313 318 336 346 345 340 337 338 340 341 346 346 340 336 333 333 335 338 340 340 339 339 339 340 342 341 341 340 339 340 339 339 339 339 340 339 339 339 339 339 338 339 339 339 338 338 337 337 337 337 337 337 337 337 337 337 337 337 337 336 336 336 337 337 337 337 337 337 336 336 336 336 334 333 333 333 332 333 333 332 332 332 333 333 333
309 309 310 310 310 310 310 310 308 308 310 312 312 323 339 345 346 343 339 337 340 344 345 338 333 334 335 333 334 336 339 339 338 339 340 341 342 341 341 340 339 340 340 340 340 340 340 339 339 339 339 339 339 339 338 338 338 337 337 338 337 338 337 337 337 337 337 336 336 336 336 336 336 336 336 337 337 337 337 336 335 335 334 334 335 333 332 332 332 332 332 332 332 332 333 332 332
308 309 310 309 309 310 309 310 308 307 310 311 312 325 341 345 345 344 340 338 340 343 340 333 332 334 334 333 333 335 337 336 334 337 340 341 341 340 341 340 340 340 339 339 339 339 339 339 339 339 339 338 337 337 337 337 338 337 337 337 337 337 336 336 337 336 336 336 336 336 336 336 336 336 336 336 336 336 337 336 335 334 332 333 334 333 332 332 332 331 331 332 332 332 332 332 331
308 309 310 310 309 309 309 309 308 309 311 311 311 324 338 339 342 343 339 336 336 337 335 332 333 333 332 332 333 335 336 334 332 335 340 340 341 341 341 340 340 339 339 339 339 339 339 339 339 337 337 337 337 337 337 337 337 337 337 337 336 336 335 336 335 335 335 335 335 335 335 335 335 335 336 335 336 335 335 335 334 334 333 333 333 332 331 331 332 332 331 331 332 332 332 332 331
308 308 309 310 309 309 310 309 309 312 313 312 314 325 334 336 340 341 337 333 334 335 333 332 332 332 332 332 333 336 336 334 333 337 341 339 340 341 340 340 339 339 339 338 338 338 338 338 337 336 336 337 337 337 337 337 337 336 336 336 335 335 335 334 334 333 333 333 333 333 333 333 333 333 333 334 334 334 334 333 333 333 333 333 332 332 331 331 331 331 331 331 331 332 332 332 331
308 308 309 309 308 309 309 309 309 312 316 317 317 321 328 336 343 342 336 333 334 336 334 332 331 331 332 333 336 335 334 335 336 339 340 339 340 340 339 340 339 339 339 337 337 337 337 337 337 337 337 337 337 337 337 337 337 336 336 335 334 334 333 333 332 332 331 331 331 331 331 330 331 331 331 331 332 332 332 332 332 333 332 332 332 332 331 331 330 330 330 330 330 331 331 331 331
309 308 308 308 309 309 309 310 310 311 313 316 315 311 319 333 342 343 338 335 335 335 335 333 331 331 332 336 339 336 335 339 338 336 338 339 339 338 338 338 338 338 336 336 336 336 337 337 337 337 336 337 337 337 337 336 336 335 335 334 333 333 333 332 332 331 331 330 330 330 329 329 329 329 329 330 330 330 330 330 331 331 331 331 331 331 331 330 330 329 329 331 331 331 330 330 331
310 309 307 307 308 308 308 310 310 310 310 312 312 309 317 330 338 341 340 338 336 335 337 335 332 332 333 337 339 337 338 341 337 335 336 337 337 336 336 337 336 335 334 335 336 336 336 336 336 336 335 336 336 336 336 335 335 334 333 332 332 333 333 332 331 330 330 329 328 328 328 328 328 328 328 328 328 328 328 328 329 329 329 329 329 330 330 330 329 329 330 330 330 329 330 330 330
310 308 307 307 308 308 309 309 309 310 311 311 311 311 314 322 333 339 340 341 338 337 338 338 336 335 335 337 338 337 340 340 338 338 336 334 334 334 333 334 334 333 333 334 335 334 335 335 335 334 334 334 334 334 333 333 333 333 332 332 332 332 331 330 330 329 329 328 327 327 327 327 327 326 326 326 326 327 327 327 328 328 328 328 328 328 329 329 329 329 329 329 329 329 329 330 331
308 306 306 308 308 308 309 309 310 311 311 310 312 314 311 316 330 338 339 343 342 338 339 338 337 336 337 338 337 337 339 339 338 338 335 332 332 332 330 330 331 330 331 332 333 332 332 332 332 332 332 331 331 331 331 331 331 331 331 330 330 330 329 328 328 328 328 327 327 327 326 325 324 324 324 324 324 325 325 326 327 328 327 327 328 328 328 328 329 329 328 329 328 328 329 329 329
307 305 307 308 308 309 310 309 309 311 312 311 313 315 310 315 332 339 340 345 343 338 338 337 335 336 337 338 338 338 339 338 336 334 333 332 330 329 328 328 328 327 327 329 329 329 329 329 329 329 328 328 328 328 328 328 328 328 328 328 328 328 327 326 326 326 326 326 326 325 324 323 322 322 322 322 323 324 324 324 325 326 326 327 327 327 327 327 327 327 327 327 328 328 328 328 328
306 306 307 308 308 310 311 311 310 310 312 311 312 316 311 312 329 339 340 342 341 337 338 337 336 335 336 337 339 338 336 335 334 332 331 330 329 327 327 327 325 325 325 326 326 326 326 326 326 326 325 325 325 326 326 326 326 326 326 326 326 326 325 325 325 325 324 325 324 323 322 322 321 321 321 321 322 322 323 323 323 324 324 324 324 324 324 325 326 326 325 326 327 327 327 328 328
306 308 308 309 310 310 311 311 311 311 313 312 311 314 312 311 324 336 337 338 337 337 338 337 336 335 336 338 339 336 333 332 332 330 328 328 328 327 326 325 324 324 324 324 324 324 323 323 324 323 323 323 323 324 324 324 324 324 324 324 324 323 323 323 323 323 322 322 322 321 321 321 320 320 319 319 320 320 321 321 321 322 322 322 321 322 322 323 324 324 324 324 325 326 327 327 328
308 309 309 310 311 311 311 311 311 312 312 312 311 314 314 312 322 332 335 336 336 336 337 336 336 336 337 338 337 333 332 331 330 327 326 326 327 326 325 324 323 323 323 323 323 322 322 322 321 321 321 321 321 321 322 322 321 321 320 321 320 320 320 320 320 320 319 319 319 319 319 318 318 318 318 317 317 318 319 319 319 319 319 319 319 320 320 320 321 322 323 323 324 325 326 326 327
308 309 309 310 311 312 313 312 312 312 312 314 313 312 314 315 322 330 334 335 335 335 336 335 335 336 337 337 334 332 331 330 327 325 324 325 326 325 324 323 323 323 322 322 321 321 320 320 320 320 319 319 319 319 319 319 318 318 317 317 317 317 317 317 317 316 316 316 316 316 316 316 316 316 315 315 315 316 317 317 317 317 317 317 317 318 318 318 319 320 320 320 321 322 323 324 324
308 309 308 310 311 312 313 312 312 313 315 317 314 313 318 322 327 331 333 334 334 335 335 335 335 336 335 334 331 331 330 328 326 325 324 324 324 323 322 322 322 322 322 321 320 320 320 320 319 318 317 317 317 317 317 316 316 315 315 315 315 314 314 314 314 314 314 314 314 314 313 313 314 313 313 314 314 314 315 315 316 316 315 315 316 316 316 316 317 317 317 317 318 318 319 320 321
308 308 308 310 311 312 313 312 314 315 315 316 316 318 324 328 331 332 332 333 334 335 335 335 336 335 333 332 331 330 329 328 326 325 323 323 323 322 321 321 321 321 320 320 320 320 320 319 317 317 316 315 315 315 314 313 313 313 313 312 313 312 312 312 312 312 312 312 312 312 312 312 312 312 312 312 312 313 313 313 314 314 314 314 314 314 314 314 314 314 315 315 315 315 316 317 318
308 307 308 309 310 314 314 312 313 314 313 316 320 325 327 327 332 335 334 335 336 336 336 336 336 334 332 332 331 330 328 326 325 325 323 323 323 322 321 320 320 320 320 319 319 319 318 317 316 315 314 314 313 313 312 312 312 311 311 311 311 311 311 310 310 310 310 310 310 310 310 310 310 310 311 310 310 310 310 311 311 311 311 312 312 312 312 311 311 311 311 311 311 312 313 314 314
308 308 309 309 309 312 315 313 313 312 312 317 323 329 329 324 330 338 338 339 339 337 337 336 335 333 332 331 330 328 327 326 325 324 323 323 322 320 320 319 319 319 319 318 318 318 317 316 315 314 313 312 312 311 311 311 310 310 310 310 309 309 309 308 308 309 309 309 309 308 307 308 308 308 309 309 308 308 308 308 308 307 308 308 308 308 308 307 307 307 307 308 308 309 309 311 312
308 309 308 310 310 310 313 314 315 313 313 317 322 329 329 322 331 341 341 340 340 338 337 336 335 333 332 330 328 326 325 324 323 322 322 322 320 319 319 318 318 317 317 317 316 316 315 314 313 312 311 311 310 310 310 310 309 309 309 308 308 308 307 306 306 307 306 306 306 305 305 305 306 306 307 307 306 306 306 305 305 304 304 304 304 304 304 304 304 304 305 306 306 306 307 308 309
308 309 308 310 310 310 312 314 315 314 314 317 321 327 327 324 333 339 338 337 339 338 338 336 335 333 330 328 327 325 324 323 322 322 321 320 320 319 318 317 317 317 316 315 314 314 313 312 312 311 310 310 310 309 309 309 308 308 307 307 306 305 305 304 304 304 304 303 303 304 304 304 304 304 305 305 304 304 304 303 303 302 302 302 302 302 302 303 303 304 304 305 306 306 306 307 308
308 309 308 309 310 310 312 313 314 315 317 318 318 322 325 326 331 336 335 335 336 336 336 335 334 332 328 326 326 325 323 323 322 321 320 320 319 317 317 317 317 316 315 314 313 313 312 311 311 311 310 310 309 309 309 308 307 306 305 305 304 303 303 303 303 303 303 303 303 303 303 303 303 302 303 303 303 303 302 302 302 302 301 302 301 302 302 302 302 303 303 305 305 305 306 306 307
308 310 309 309 310 310 310 312 314 316 319 321 318 317 323 328 330 334 335 334 335 334 333 334 333 329 326 326 325 324 323 322 321 320 319 319 318 317 316 316 316 315 314 314 313 312 312 311 311 310 310 309 309 308 308 307 306 305 305 304 304 303 303 302 302 302 302 302 303 302 303 303 302 301 302 302 302 302 302 301 301 301 301 301 301 301 301 301 301 301 302 304 304 304 305 305 305
Wind_Speed
4 4 4 3 4 2 2 3 1 1 0 3 2 3 4 2 0 3 1 2 3 1 1 1 4 6 5 3 7 6 4 2 2 1 1 3 12 19 20 22 25 24 22 21 23 21 18 19 17 15 14 13 14 16 19 20 19 18 17 17 17 18 19 19 18 18 18 18 18 18 18 17 17 17 16 15 15 15 14 15 15 15 15 16 16 16 16 17 17 16 16 16 15 15 15 15 16
3 3 3 1 5 2 1 1 2 1 2 4 3 4 3 1 1 4 1 3 1 2 2 5 6 6 6 7 9 6 3 4 3 3 3 10 17 17 20 23 24 23 23 21 22 20 17 18 17 15 14 13 14 16 18 19 20 18 17 17 17 19 19 19 18 18 18 18 18 18 17 17 17 17 16 16 14 14 13 14 15 14 14 15 15 15 15 15 15 15 15 15 14 14 14 13 13
3 2 1 2 4 3 2 0 2 2 4 6 5 4 2 3 4 1 2 2 2 3 3 4 4 4 2 5 4 1 3 2 4 5 6 14 16 15 22 23 22 23 22 22 22 19 17 18 17 15 14 13 14 16 18 18 19 17 17 17 18 19 19 19 19 19 19 18 18 17 17 16 16 16 16 16 14 13 13 13 14 13 13 13 13 13 13 13 13 13 13 14 14 13 12 12 11
3 3 2 2 1 1 2 1 2 3 5 5 5 3 4 5 2 2 3 2 4 2 2 1 1 3 2 4 3 2 4 3 6 7 8 14 14 17 22 22 22 22 21 20 21 18 16 19 17 15 14 14 14 15 17 18 18 17 17 18 18 19 19 19 18 19 18 18 17 17 16 15 16 15 15 15 14 13 13 12 12 11 11 12 12 12 12 11 11 11 12 13 13 12 11 10 9
5 5 3 2 2 0 2 1 1 4 7 4 3 1 3 3 3 2 2 2 3 3 1 2 1 2 3 5 2 1 5 5 7 9 11 14 15 19 21 21 21 20 20 19 19 17 17 20 18 15 15 14 14 14 17 18 18 18 17 18 18 18 19 19 18 18 18 17 17 17 16 15 15 15 14 14 13 12 11 10 10 9 8 10 11 12 11 10 10 10 11 11 11 11 10 9 8
6 7 6 4 1 0 2 2 3 6 6 3 4 0 1 1 2 1 3 4 2 3 2 2 3 3 4 5 3 3 2 4 7 10 12 16 18 20 21 21 20 20 20 20 18 16 18 20 18 16 15 14 14 14 16 17 17 17 17 18 17 18 19 19 18 18 17 17 17 16 15 15 14 14 13 12 11 10 9 8 8 7 6 7 8 10 10 9 8 9 10 10 10 9 9 8 6
5 4 4 3 2 1 2 4 5 6 3 3 4 0 2 1 1 3 4 3 2 4 2 4 6 6 4 2 3 5 3 3 8 11 14 18 21 21 21 21 20 20 19 19 18 17 19 20 19 17 15 14 14 14 15 16 17 17 17 17 17 18 19 18 17 17 17 16 16 16 15 14 13 13 12 10 9 9 8 7 7 6 6 7 8 8 8 8 8 8 8 9 8 8 7 6 5
4 2 1 1 2 1 2 4 5 4 1 1 4 3 2 2 2 5 5 1 1 2 4 6 7 5 3 1 2 6 5 5 10 14 18 20 22 22 21 20 20 19 19 19 17 17 19 19 19 17 16 15 14 14 15 16 16 16 17 17 17 18 18 17 17 16 16 16 16 15 14 13 12 11 10 9 8 8 8 7 7 6 6 6 7 7 7 7 7 7 8 8 8 7 6 5 5
4 1 1 2 2 1 2 3 4 3 3 4 5 6 5 4 3 5 7 4 2 2 5 6 4 4 4 4 4 4 5 11 15 18 21 21 21 21 21 20 21 20 20 19 18 18 18 18 19 17 16 15 14 14 15 16 16 15 16 16 17 18 18 17 16 16 16 15 14 13 13 12 11 10 8 7 7 8 8 8 7 6 5 4 5 5 6 7 8 8 9 9 8 7 6 5 5
2 2 1 1 2 3 4 4 3 2 4 4 6 9 6 4 5 6 9 7 4 3 5 4 2 6 7 6 6 2 6 15 18 20 20 21 20 19 19 19 20 22 22 19 18 18 18 17 17 17 16 14 15 14 15 16 15 16 15 16 17 17 17 17 16 16 15 14 13 12 12 10 9 8 8 7 7 7 8 7 7 6 5 5 5 5 7 8 10 11 11 10 8 6 5 5 5
1 1 1 2 3 5 5 5 5 3 3 3 6 9 7 7 6 7 9 8 4 5 7 4 5 10 9 6 4 1 9 18 19 20 21 20 19 18 18 18 19 21 23 21 18 18 18 16 15 16 15 15 14 14 15 15 15 16 16 17 16 16 16 16 16 15 14 13 12 12 11 9 8 8 7 7 7 7 7 7 7 7 7 7 6 6 8 10 12 12 11 10 7 5 4 4 4
2 2 1 3 4 4 3 3 4 4 3 4 5 4 4 6 5 7 9 9 6 7 9 7 8 10 8 5 3 4 11 17 18 20 20 19 19 18 17 17 18 20 21 20 19 19 18 16 15 14 15 15 14 14 14 14 14 15 16 17 16 15 16 16 15 14 13 13 12 11 10 9 8 7 7 7 7 7 7 7 7 7 7 7 6 7 8 10 13 13 11 9 7 5 3 3 4
2 3 3 3 1 2 2 2 2 2 3 3 4 2 2 4 6 8 8 8 8 9 9 9 11 8 6 6 4 5 10 16 19 19 19 19 19 18 17 17 19 20 20 19 19 19 18 16 14 13 13 14 13 12 13 13 13 14 15 15 15 15 15 15 14 13 12 12 11 10 9 8 7 6 6 6 7 8 7 7 7 7 7 7 7 7 9 11 13 12 11 9 6 5 4 4 4
2 2 3 3 0 1 2 2 1 2 3 1 2 1 1 3 6 7 6 8 9 7 6 10 13 8 7 7 5 6 8 15 19 18 19 19 17 17 17 18 19 19 19 18 17 18 18 16 14 13 13 12 12 12 11 12 12 13 14 14 14 14 15 15 14 13 12 11 10 9 8 7 6 5 5 6 6 7 6 7 7 7 7 7 7 7 9 11 11 10 9 8 6 4 4 4 5
2 2 2 2 1 1 3 3 1 3 3 2 2 2 4 4 5 5 7 9 6 4 7 10 8 4 9 10 7 10 12 17 19 18 19 18 17 16 17 18 18 18 17 17 16 17 17 15 14 14 13 12 12 11 10 11 12 12 12 13 13 12 14 15 13 12 12 11 9 8 7 6 5 4 4 5 5 7 7 7 7 7 7 7 7 7 7 10 10 9 8 7 6 4 3 4 5
1 2 1 2 3 3 4 4 2 2 2 3 2 3 6 4 1 3 5 5 6 6 5 7 2 0 9 10 10 18 19 19 20 19 19 18 17 16 17 17 17 17 16 16 15 15 15 15 15 14 13 12 11 10 11 11 12 13 12 12 12 12 14 14 12 10 10 9 8 8 7 5 4 3 3 4 4 6 7 6 7 7 7 7 7 7 6 7 8 8 7 6 5 4 3 4 5
1 2 3 3 4 5 5 5 5 2 1 2 1 4 6 6 1 0 1 5 10 7 3 4 2 2 7 11 19 26 23 21 21 21 21 20 19 17 17 17 16 16 15 15 15 14 15 15 15 14 13 11 11 10 11 11 11 12 12 11 12 13 13 12 10 9 8 8 7 7 6 4 3 2 3 3 3 4 6 6 6 6 6 7 7 7 5 5 6 6 6 6 4 4 3 4 5
3 3 4 5 5 5 5 6 5 0 2 2 4 3 5 6 2 2 3 7 10 9 6 7 7 8 12 19 27 27 24 24 23 23 22 21 20 19 19 19 18 17 16 16 14 14 16 15 14 14 13 11 10 11 11 10 10 11 11 11 12 12 11 10 9 8 8 7 6 6 4 3 2 2 2 2 2 2 3 4 4 4 4 5 6 6 5 3 4 5 5 5 4 3 3 4 4
4 2 4 6 4 3 3 4 3 2 4 7 5 1 4 6 1 1 3 8 11 11 8 9 12 13 17 23 26 26 25 25 23 23 23 21 21 21 20 19 19 18 17 16 16 15 15 14 14 13 12 11 11 11 11 10 10 10 11 11 11 11 10 9 9 8 7 6 5 4 3 2 2 2 1 1 1 1 1 2 2 3 3 3 4 5 5 3 2 3 4 4 4 3 2 3 3
3 2 6 5 3 2 3 4 4 4 5 8 6 1 4 4 1 2 6 9 10 12 11 12 15 17 18 20 23 25 25 23 23 23 22 22 21 20 20 19 19 19 17 16 17 16 14 13 13 12 11 11 11 12 11 9 10 11 10 11 11 10 9 9 8 7 6 5 5 4 3 3 3 2 2 1 1 1 0 1 1 1 1 2 2 3 3 3 2 0 3 4 4 3 3 2 2
3 4 5 2 4 5 4 6 7 5 3 5 5 4 5 2 2 4 10 10 8 11 10 9 16 23 22 21 21 24 24 23 23 22 22 21 19 18 18 18 18 17 17 16 16 14 13 13 12 11 10 11 11 11 10 9 10 11 10 11 11 10 9 9 8 7 6 5 5 4 4 4 3 3 4 4 3 2 2 1 1 1 1 0 0 0 1 1 2 1 1 4 5 4 4 4 3
3 5 2 3 4 5 3 4 5 3 2 3 5 6 6 3 3 7 14 11 4 7 8 6 14 23 24 23 21 21 21 21 22 22 22 21 19 17 16 17 16 15 15 14 14 13 12 12 11 11 11 10 10 9 10 10 10 11 10 10 10 9 9 9 8 7 6 4 4 4 4 4 3 3 4 4 4 3 2 2 1 1 2 1 1 2 1 1 0 0 1 3 5 5 5 5 5
4 5 1 3 4 3 2 2 3 1 1 5 5 4 5 4 4 8 13 6 1 3 7 10 14 19 22 22 20 20 19 20 22 22 21 20 19 18 18 18 17 15 13 13 13 13 12 11 11 11 11 11 10 9 9 10 10 10 9 9 8 9 8 8 7 6 5 4 4 4 4 3 2 2 3 3 3 3 2 1 1 2 2 2 2 2 3 3 2 2 2 3 5 6 6 5 5
6 5 2 4 4 4 4 3 3 0 4 7 3 2 5 6 4 5 7 1 2 6 13 16 16 19 21 20 19 20 20 20 21 21 21 20 19 19 17 17 17 15 13 13 13 13 12 12 12 11 11 11 10 9 8 8 9 9 8 7 7 7 7 6 5 4 3 3 4 4 3 1 1 2 3 3 4 4 3 2 1 1 2 3 3 3 3 4 5 4 4 4 5 6 7 7 6
9 7 2 2 3 4 4 3 5 3 5 5 2 4 5 5 3 5 5 4 7 11 16 19 19 19 19 19 20 19 19 19 19 20 19 19 19 17 15 15 16 17 15 14 13 12 12 12 12 12 11 10 9 9 8 7 8 9 7 7 7 6 6 5 4 2 1 1 2 1 1 1 2 3 3 3 4 4 4 3 2 2 2 3 3 3 3 4 5 6 7 6 6 7 7 8 8
7 8 3 4 4 4 3 4 5 4 4 2 1 3 1 1 3 5 5 6 10 14 17 20 20 20 18 17 19 19 17 18 18 19 18 19 19 16 14 14 16 17 15 14 13 12 12 13 12 11 10 9 9 9 8 7 8 8 7 7 7 5 5 4 3 2 1 1 2 3 3 4 5 5 4 5 5 4 4 4 3 2 2 3 3 3 3 4 5 6 7 7 7 7 7 9 10
3 6 5 8 7 5 2 4 4 2 4 4 4 3 4 2 1 3 5 8 12 15 18 19 20 19 18 17 16 15 15 16 17 17 16 17 17 15 14 14 15 15 13 13 12 11 12 12 12 11 10 9 8 8 7 7 7 7 6 6 6 5 5 4 3 3 3 3 3 4 5 5 6 6 6 6 6 5 4 4 3 3 3 3 3 3 4 4 5 6 6 7 8 8 8 9 9
2 4 4 5 5 4 4 5 5 3 4 4 6 3 2 2 2 3 8 11 12 16 18 18 19 17 17 17 15 12 12 14 15 15 15 16 15 15 16 15 16 14 12 13 12 12 13 12 11 11 10 9 9 8 7 7 7 6 6 5 5 5 5 4 3 3 3 3 3 4 5 5 5 6 6 6 6 6 5 4 3 3 3 3 4 5 5 5 5 5 6 8 9 10 10 10 10
2 3 3 3 2 6 7 5 4 4 3 3 6 3 4 4 1 4 10 11 12 15 17 17 17 15 15 14 12 9 8 10 10 12 14 13 14 15 15 15 15 14 13 12 12 13 13 12 12 11 10 9 9 8 7 7 6 6 6 4 4 4 4 3 3 2 3 3 4 4 4 4 4 5 6 7 6 6 5 5 5 5 4 3 4 6 6 5 5 5 6 7 8 11 11 11 11
3 3 3 3 3 5 5 3 3 5 3 4 6 3 4 3 0 6 12 12 14 14 14 16 15 14 12 10 9 7 6 6 3 6 12 12 13 13 14 15 14 13 13 12 13 14 13 12 11 11 10 9 9 9 8 7 6 6 5 4 3 2 2 2 2 2 3 3 4 4 4 4 3 4 6 7 7 6 6 6 6 6 5 5 5 7 6 5 5 5 6 6 7 10 10 11 13
4 3 2 3 4 3 1 2 5 7 2 4 6 5 2 4 3 6 7 6 9 13 15 15 15 14 12 8 8 7 8 9 3 1 9 12 13 13 13 15 14 13 13 13 13 13 13 12 11 11 10 9 9 8 8 7 6 6 4 3 2 2 3 3 3 3 3 4 4 4 4 4 4 5 6 7 7 7 7 7 7 7 7 7 6 7 6 5 6 6 6 6 7 8 10 12 14
3 4 4 3 4 2 1 2 7 7 2 3 5 4 2 4 5 6 8 5 2 9 15 16 16 15 12 8 8 9 9 10 6 3 6 10 12 13 13 14 13 12 13 13 14 13 12 11 11 11 10 10 9 8 7 6 6 6 4 2 2 3 4 5 5 5 5 5 5 5 4 4 4 4 5 5 6 6 6 7 7 7 7 7 6 7 7 8 8 8 8 7 8 8 9 10 11
3 4 4 4 6 3 0 2 3 3 3 3 3 2 2 4 5 7 10 12 8 9 13 14 15 14 10 8 9 10 9 10 11 8 7 7 9 12 12 12 12 12 13 14 14 14 12 11 11 11 12 11 10 9 7 6 6 5 4 4 4 5 6 6 6 5 6 6 6 6 5 5 4 4 4 4 5 5 6 6 7 7 8 7 7 8 10 10 10 11 10 9 9 9 9 9 10
3 3 2 2 4 4 2 2 0 2 3 5 3 2 2 5 8 9 9 13 12 11 13 13 12 9 6 7 10 11 9 9 11 11 10 6 7 11 11 10 11 11 12 14 14 13 12 11 11 11 12 11 10 9 7 6 6 4 4 5 6 6 7 8 8 7 6 6 6 6 6 5 4 4 4 4 5 6 6 7 8 8 8 8 8 8 10 11 11 11 11 10 10 10 11 11 11
6 6 5 2 2 3 4 2 1 2 4 5 6 3 3 6 10 9 9 12 11 11 13 12 10 8 7 7 6 9 9 8 9 12 11 9 10 12 11 10 11 11 11 13 14 13 13 12 12 11 9 9 9 9 8 7 5 4 4 6 7 8 8 8 8 7 6 6 6 6 5 5 4 4 4 4 5 6 6 7 7 8 8 9 9 9 9 10 11 11 11 11 11 12 12 12 12
9 7 6 5 4 3 3 1 1 3 5 6 7 6 6 9 11 9 10 10 8 8 9 7 9 12 12 9 5 3 7 7 10 13 12 12 13 14 11 10 11 10 11 13 13 12 13 12 11 10 8 8 10 9 7 6 5 5 6 6 7 8 7 7 7 6 6 5 5 5 4 4 3 4 4 4 5 5 5 5 6 7 8 8 9 10 8 8 9 9 10 12 12 12 12 11 10
9 7 6 5 4 4 2 2 1 2 5 4 4 6 9 11 12 10 10 9 7 8 7 9 13 12 10 5 5 4 3 5 8 9 12 14 14 14 12 12 11 10 10 12 11 10 11 11 11 10 8 8 10 9 7 6 6 7 7 6 6 7 7 7 7 6 6 6 5 5 5 5 4 4 4 4 5 5 4 5 6 6 7 7 9 11 10 9 9 9 9 11 11 11 12 11 10
6 7 8 5 4 4 2 2 1 1 4 2 2 7 9 10 11 9 9 7 5 5 8 13 13 10 9 7 2 2 1 5 4 3 11 14 13 13 13 13 12 11 11 12 12 12 12 11 12 12 10 10 9 7 8 8 8 8 7 7 6 6 7 7 7 7 7 7 7 7 6 6 6 5 5 5 6 5 4 5 7 7 8 8 9 11 11 10 11 10 10 10 11 11 11 12 12
3 4 7 6 4 1 2 1 3 1 2 2 4 7 6 4 4 6 7 5 3 5 9 11 13 12 10 8 7 4 3 5 1 4 10 13 12 14 14 14 13 12 13 13 13 14 14 13 14 14 10 9 9 8 9 9 9 8 7 7 7 8 9 9 9 9 9 9 9 9 9 9 8 7 6 6 6 5 5 6 7 8 9 8 9 11 10 10 10 11 10 10 11 12 11 11 12
2 3 6 6 3 1 3 1 4 3 2 3 6 5 4 3 4 6 6 6 5 8 10 9 10 11 9 9 8 8 9 7 5 5 9 12 12 14 13 13 14 13 13 13 13 14 15 14 13 13 10 10 11 9 9 9 8 7 6 7 9 10 11 11 10 10 10 9 9 9 10 11 10 9 8 7 6 6 6 7 8 9 9 8 9 10 10 10 10 10 10 10 10 12 12 10 11
2 2 3 4 4 2 1 1 2 1 2 5 7 5 3 4 5 6 5 6 6 8 11 9 9 9 8 8 8 9 10 8 7 5 8 12 12 13 13 13 14 13 13 13 13 15 17 15 13 14 12 10 11 10 9 9 9 8 9 10 10 10 10 9 9 10 10 9 8 9 10 10 11 11 10 8 8 7 7 7 7 8 8 9 9 10 11 10 11 11 10 10 10 12 12 12 12
3 3 4 4 5 3 2 2 0 2 3 3 3 5 4 4 7 7 5 7 7 7 11 11 11 11 10 11 11 10 8 7 7 5 5 9 12 11 11 15 15 12 12 14 15 16 18 17 15 15 14 13 12 11 10 10 9 10 11 9 8 7 7 7 7 7 7 7 8 8 9 10 10 11 11 9 8 8 8 7 7 7 8 9 10 11 11 11 12 12 10 10 11 12 12 13 12
5 5 6 5 3 3 2 2 1 2 3 1 1 5 3 4 8 9 8 9 9 8 12 12 11 12 12 13 13 12 10 7 7 7 6 7 11 11 11 14 16 12 14 19 19 19 19 19 18 17 16 16 13 12 11 10 11 11 8 6 5 6 6 6 5 5 5 7 7 6 8 9 9 9 9 8 9 8 8 9 9 8 9 10 11 11 12 13 13 12 11 11 11 11 11 12 12
4 5 9 7 4 3 2 1 0 0 2 0 1 2 2 3 7 9 10 11 10 10 12 12 12 13 13 14 14 13 12 10 10 10 8 5 8 13 12 13 16 15 18 22 22 21 21 20 21 19 18 18 15 13 12 11 11 10 8 8 8 8 8 7 5 5 5 5 6 6 7 7 8 8 8 9 9 9 9 10 11 11 11 12 12 12 12 13 13 12 11 11 11 11 11 12 12
3 7 9 7 5 4 2 1 1 2 2 4 4 3 4 2 3 8 11 11 11 12 13 12 14 16 15 16 16 14 14 13 12 11 10 8 8 12 14 16 19 20 22 24 23 23 22 21 20 20 19 18 16 15 14 12 12 11 11 10 9 7 7 6 4 4 4 4 5 6 6 7 8 9 9 10 10 10 10 11 11 12 13 13 12 11 11 12 12 12 12 12 12 12 11 12 13
5 9 8 4 3 3 1 2 2 1 3 7 6 7 6 2 3 8 10 10 11 11 12 13 14 17 17 16 16 14 13 12 11 10 10 13 14 15 18 21 21 19 21 24 24 22 22 20 19 19 18 16 15 14 14 13 12 11 10 9 7 6 5 5 4 4 4 4 5 6 6 7 8 8 9 11 10 10 11 12 12 12 12 12 12 13 14 14 14 14 14 14 13 13 13 12 13
9 10 7 5 2 2 1 0 0 2 6 4 7 8 7 4 4 8 8 9 14 13 12 14 14 16 17 15 15 14 14 12 12 12 11 14 17 16 19 23 21 19 21 23 22 21 21 19 18 18 17 15 15 13 13 13 12 10 9 7 7 6 5 5 5 5 5 5 5 6 5 6 7 7 8 10 11 10 11 13 13 12 12 13 14 16 16 15 15 15 16 15 14 14 14 14 13
11 7 7 6 3 2 1 1 1 5 6 2 6 8 8 6 4 7 9 10 16 16 14 17 18 17 17 14 14 15 14 12 13 13 11 14 17 14 16 21 21 21 23 22 21 20 20 19 18 18 17 15 15 13 12 11 10 9 8 7 7 6 6 5 5 5 5 5 5 5 5 5 6 6 7 10 11 11 10 12 13 13 14 14 15 16 16 16 16 15 16 17 16 16 15 15 15
10 7 8 8 5 4 4 4 4 6 3 2 2 6 6 5 2 7 13 13 16 17 15 20 22 20 18 14 13 13 13 12 11 10 8 11 15 14 16 20 20 20 22 22 21 20 19 18 17 18 17 15 14 13 11 11 10 9 9 8 8 7 6 6 6 5 5 5 5 5 5 5 6 7 8 10 11 10 10 11 14 14 15 15 16 17 18 19 18 17 16 16 16 15 15 15 16
11 10 11 10 7 7 8 7 4 4 2 2 1 4 4 2 2 5 11 12 14 15 13 17 20 20 18 13 12 13 12 11 10 10 7 6 11 14 17 19 17 18 20 20 20 20 19 18 18 19 18 16 15 15 14 14 13 13 11 10 9 8 7 7 7 7 6 6 5 5 5 6 6 7 8 8 10 10 9 10 13 14 14 15 16 16 17 17 17 16 16 16 16 15 16 16 17
7 5 7 8 6 5 6 6 4 2 3 3 3 3 3 2 2 3 5 3 6 10 12 14 14 13 13 11 12 12 12 11 10 11 9 8 12 14 13 16 18 18 19 20 20 19 17 16 18 20 19 17 17 16 16 16 16 15 13 11 10 8 8 8 7 7 7 7 6 6 6 6 6 6 6 7 9 11 11 11 12 12 13 14 15 16 16 16 17 17 18 19 18 18 18 17 17
5 2 4 6 5 3 2 1 0 1 2 2 3 2 1 1 2 2 2 2 6 11 14 16 13 11 12 11 11 13 12 12 11 11 11 12 16 15 11 15 20 20 20 21 19 17 16 16 19 21 20 18 17 17 16 16 15 15 13 11 10 9 9 9 8 8 7 7 7 7 7 6 6 6 6 6 8 10 11 11 11 12 13 15 16 17 17 18 18 17 18 19 19 20 20 19 18
4 4 6 4 3 4 3 1 2 1 3 3 3 2 1 1 1 3 7 8 11 13 15 17 15 14 14 11 11 12 11 12 12 12 12 12 14 13 9 14 19 18 18 21 20 19 19 21 21 21 20 18 17 16 16 15 14 13 13 12 11 11 10 10 10 9 8 8 8 7 7 7 6 6 6 6 7 9 9 9 10 11 13 14 15 15 16 17 16 15 15 16 16 18 20 20 18
5 6 6 5 4 1 1 2 2 3 6 3 2 3 4 4 3 7 10 11 13 15 16 16 16 16 15 12 12 13 13 14 14 13 13 13 14 12 11 15 18 17 20 24 24 23 23 22 21 20 19 17 16 15 14 14 13 12 13 13 12 12 12 12 12 12 12 11 11 9 7 7 8 7 7 7 8 9 10 10 11 12 13 14 14 15 15 15 14 13 14 14 15 16 18 17 17
3 5 6 5 4 4 3 2 4 5 6 3 2 3 4 5 5 10 13 13 15 16 16 16 17 17 14 13 13 14 15 15 15 14 10 11 15 13 11 15 20 23 24 25 25 24 24 22 20 19 18 16 15 14 14 14 13 13 13 13 13 14 14 15 16 17 17 17 17 15 11 9 9 8 9 9 9 10 11 11 12 13 14 14 14 15 15 15 14 14 15 15 16 18 18 16 16
2 7 7 3 3 5 4 2 2 4 5 3 3 3 2 5 8 13 16 17 18 18 17 17 18 16 13 14 14 14 14 14 15 14 10 13 18 16 13 16 22 25 26 25 25 24 23 21 19 18 17 15 15 14 14 14 14 15 15 15 15 16 17 18 20 21 21 21 20 20 18 15 12 11 11 11 11 12 12 12 13 14 14 15 16 16 15 15 15 15 15 16 18 18 17 17 18
7 10 9 6 2 2 3 2 1 2 4 3 3 3 2 2 7 15 19 20 21 22 20 18 17 16 15 15 15 14 14 14 13 12 11 14 19 19 19 20 22 24 24 24 24 23 22 20 19 17 16 15 14 14 14 14 15 17 18 18 18 18 19 20 21 22 22 22 22 23 22 20 17 13 12 13 13 13 13 13 14 15 16 17 18 17 16 15 15 16 16 17 18 18 17 17 17
9 9 8 8 4 3 6 6 2 0 1 2 2 2 1 1 2 10 16 18 20 22 20 16 15 16 16 16 16 16 16 16 14 13 13 15 17 19 20 21 21 21 21 21 21 21 21 19 17 15 15 14 13 13 14 15 17 18 18 18 18 18 20 21 22 23 22 22 23 23 22 22 19 14 12 14 14 13 14 15 15 17 18 19 19 18 17 16 16 16 16 17 18 17 17 17 17
Wind_Direction
353 348 356 341 357 359 24 18 258 37 332 249 240 255 254 181 79 266 282 296 276 27 333 27 124 129 112 112 136 110 46 144 143 134 174 98 137 144 141 141 142 141 143 149 153 150 150 154 153 145 134 129 133 137 136 133 130 130 130 128 127 125 122 120 121 122 122 121 121 122 123 122 121 120 120 117 115 114 114 114 113 112 113 113 113 112 111 111 110 111 110 107 106 108 111 110 107
7 357 12 28 20 7 167 3 251 163 232 251 225 227 269 93 227 251 296 309 298 57 70 95 99 79 62 87 111 113 65 24 37 84 88 125 133 135 141 143 142 141 141 146 151 147 148 153 152 145 135 129 132 138 136 134 132 131 131 128 125 121 119 120 121 123 122 122 123 124 123 123 122 121 120 118 115 113 113 114 113 111 112 112 113 112 112 111 109 111 109 106 105 108 113 112 109
38 29 66 138 38 17 124 0 232 183 225 249 240 221 291 278 232 215 358 302 142 112 97 109 100 62 65 116 102 76 102 71 100 104 112 135 137 140 145 143 142 141 142 148 152 148 149 153 152 146 138 131 131 139 138 135 133 131 131 127 125 123 121 122 123 125 125 124 125 124 123 123 122 120 119 117 113 110 107 105 105 104 104 103 104 108 110 108 106 108 109 107 106 108 112 112 110
64 74 108 158 81 21 131 199 204 195 223 245 257 222 247 259 192 127 38 44 152 143 54 105 91 23 328 124 89 44 100 112 120 120 132 145 145 144 145 142 141 141 143 149 151 148 150 155 153 147 143 132 129 138 140 138 134 132 132 129 127 127 126 126 127 127 127 126 126 126 124 124 122 121 119 117 114 111 107 103 103 103 108 109 109 112 111 111 108 108 113 110 107 110 111 110 106
85 84 87 141 175 180 131 188 135 206 221 216 249 236 254 237 142 148 58 13 229 221 82 106 91 40 47 75 65 79 108 112 123 135 138 142 144 143 144 142 140 142 144 149 150 147 151 155 153 150 146 135 129 134 142 142 135 134 133 131 130 129 130 129 129 129 129 128 128 128 126 125 124 123 121 119 116 114 113 111 109 108 113 119 124 125 119 117 113 113 117 112 110 111 109 107 100
110 89 68 80 108 352 149 203 189 214 223 191 230 39 23 192 144 262 359 335 272 184 168 109 103 116 92 64 64 72 84 125 135 145 140 140 145 145 144 142 142 144 146 149 150 147 151 156 155 152 147 138 131 131 139 141 136 134 134 133 133 132 131 130 130 131 129 129 130 131 128 128 126 123 121 118 117 115 116 112 108 108 108 114 127 128 123 125 127 121 118 115 115 115 112 107 96
145 117 56 85 99 332 202 219 216 220 222 170 241 229 101 79 78 319 339 340 71 100 108 124 126 122 102 93 96 53 7 163 146 144 142 143 145 146 145 144 144 146 148 150 149 148 153 156 156 153 148 139 133 133 137 139 136 134 136 135 134 133 131 131 132 132 131 132 133 133 132 130 125 120 119 117 113 109 107 104 100 102 103 110 123 127 128 135 139 125 118 123 123 122 118 106 88
133 146 347 177 142 329 215 228 233 223 220 204 268 260 236 301 332 312 318 332 350 68 112 140 143 130 92 108 111 42 41 126 139 137 139 142 145 147 148 147 146 147 149 149 149 149 155 157 157 153 148 141 135 138 137 136 135 135 138 137 135 135 133 132 133 134 134 135 135 134 133 130 124 120 119 115 108 105 104 104 102 103 109 119 130 137 142 151 154 134 124 128 127 125 116 98 73
74 65 198 201 168 208 219 232 246 230 254 266 265 256 260 279 289 292 284 279 282 241 151 158 170 146 114 98 99 53 76 121 130 136 140 143 147 149 150 151 149 148 149 149 149 149 153 157 157 154 148 144 140 141 138 134 135 137 138 139 138 137 136 135 134 136 136 136 135 134 133 129 125 119 114 109 103 101 101 103 99 94 99 111 127 137 142 148 151 139 131 130 128 123 108 87 60
48 13 162 156 171 211 227 227 232 229 249 262 263 260 261 257 242 239 254 266 254 204 149 143 127 126 126 109 99 63 120 129 132 138 144 146 147 150 151 153 150 149 150 148 149 150 152 156 157 156 150 146 144 142 139 135 135 137 139 142 141 139 140 139 137 137 138 137 136 135 134 129 124 119 109 101 92 91 94 98 91 79 72 77 98 114 126 134 138 137 135 132 128 118 97 73 53
120 43 146 178 191 215 227 228 227 239 267 281 270 262 250 231 239 240 238 251 241 176 161 158 129 123 121 107 98 117 138 136 138 141 145 149 148 150 150 151 152 150 149 148 149 150 151 156 157 155 152 149 146 143 140 138 139 142 145 147 143 142 143 142 141 140 140 141 139 137 133 128 121 116 107 95 80 75 81 92 90 76 65 66 78 100 121 131 134 134 132 130 125 112 86 62 59
178 135 163 201 211 219 224 238 240 261 267 269 259 251 229 200 213 240 223 224 217 177 183 187 156 134 121 120 123 146 146 144 143 143 144 148 148 150 148 147 152 150 148 148 148 150 151 155 155 153 152 150 148 145 144 142 144 147 149 150 147 147 147 146 145 143 144 143 140 138 133 126 119 111 99 86 72 63 66 80 86 74 66 64 68 93 116 126 130 131 131 129 122 109 80 61 71
186 148 166 192 223 213 199 243 248 277 262 238 231 191 154 189 219 236 225 216 203 185 192 178 159 138 118 128 132 144 150 149 147 144 144 145 146 146 144 144 149 149 149 149 148 152 154 154 154 154 152 149 148 145 146 147 148 148 149 149 148 150 150 146 145 147 149 144 140 138 132 126 118 107 89 74 62 56 57 69 78 76 71 63 65 90 114 123 128 130 132 131 123 109 83 68 78
176 161 186 193 104 201 197 227 220 240 250 196 204 259 227 234 249 239 215 209 203 190 168 151 151 128 117 135 149 166 154 151 150 146 144 142 141 140 141 143 145 148 149 150 152 155 156 155 155 157 154 148 145 142 144 149 148 147 147 144 143 151 153 145 144 149 148 145 143 139 136 131 117 99 79 60 47 46 51 66 72 72 73 68 70 90 116 127 131 134 135 134 124 107 83 70 77
178 160 178 202 186 202 206 211 215 216 219 153 162 301 289 269 263 237 213 212 197 161 131 141 161 134 155 168 170 173 156 150 149 144 141 137 137 138 139 142 144 147 150 153 157 158 157 156 156 157 156 151 147 145 146 149 148 147 146 143 141 149 154 150 145 146 145 144 142 139 140 133 112 88 65 48 41 41 45 63 68 64 65 66 72 88 117 133 137 140 142 138 126 107 73 65 75
159 143 148 226 213 204 198 183 172 200 182 160 172 312 315 327 269 243 242 212 141 143 139 142 199 110 165 169 152 156 151 144 143 140 137 135 136 139 141 145 146 148 153 158 161 162 160 159 160 160 157 153 150 149 146 145 150 151 148 144 143 145 152 158 150 145 147 144 142 143 144 136 120 90 62 54 49 39 40 59 68 62 58 59 66 77 110 137 142 147 152 146 127 114 78 58 75
141 171 185 221 214 201 187 177 174 163 98 183 0 352 337 353 60 95 250 154 138 139 86 100 79 67 144 142 140 146 145 142 142 140 138 139 141 143 147 150 150 153 159 163 165 165 165 164 162 160 157 154 151 150 144 141 146 148 145 141 145 146 150 160 157 149 148 148 154 153 151 143 127 97 76 79 61 34 36 49 62 65 59 59 62 66 89 134 151 160 164 157 135 119 99 67 77
181 181 202 221 211 195 177 182 184 112 340 295 343 0 341 353 63 78 92 121 131 127 91 94 90 84 110 124 136 140 140 144 144 143 145 148 150 151 154 156 157 160 163 166 168 168 168 167 163 158 156 154 151 148 141 142 144 139 138 136 143 149 151 155 154 152 148 150 161 156 149 134 115 113 96 88 66 43 45 43 47 62 67 63 61 64 73 107 156 182 181 168 154 128 109 90 89
196 154 214 227 193 173 182 190 194 240 298 314 324 19 343 340 91 108 132 142 143 138 124 118 109 107 118 126 135 138 141 145 147 150 154 156 159 159 159 161 163 164 166 168 169 169 169 167 163 158 156 154 148 145 142 146 148 141 138 135 138 147 152 154 155 159 157 152 156 151 145 129 114 121 108 79 17 40 94 84 42 38 68 67 55 58 62 74 127 206 207 186 180 157 132 117 111
197 174 228 228 171 190 214 207 224 233 271 306 310 354 331 324 192 173 157 163 170 160 146 141 138 135 134 135 137 141 144 147 152 157 159 161 163 163 162 163 165 166 166 168 167 169 170 166 163 160 156 152 147 145 146 150 151 145 143 142 142 142 145 151 153 157 163 161 158 153 143 131 114 89 63 53 12 354 345 152 126 16 60 73 60 53 52 63 72 205 231 220 209 181 164 165 147
169 196 230 187 160 213 212 206 238 249 243 282 305 311 308 327 258 199 158 169 196 186 172 161 158 150 145 145 143 145 148 151 157 162 163 164 164 162 164 164 165 166 165 167 166 167 169 166 162 161 158 152 150 150 152 156 151 147 147 148 147 143 142 144 143 143 153 157 153 147 132 122 110 84 64 55 41 35 19 355 209 266 300 19 108 74 46 63 65 61 253 238 226 211 182 178 188
172 209 239 97 155 209 212 202 231 244 234 273 300 309 311 313 257 194 173 182 199 188 188 174 161 155 149 147 146 148 151 157 162 166 167 165 165 163 163 163 163 164 164 164 165 164 167 166 161 162 162 157 158 156 155 158 154 151 149 146 146 145 145 144 143 143 147 149 145 141 131 123 111 84 59 46 34 37 41 24 8 335 335 323 269 256 257 253 221 127 278 255 235 223 204 187 192
215 215 201 179 180 211 245 229 219 176 305 292 291 310 319 295 259 189 185 194 0 158 151 142 152 154 149 144 146 153 157 165 167 169 167 164 168 167 165 165 163 162 161 161 162 163 165 166 165 163 164 162 162 162 158 159 159 154 147 145 146 147 150 149 149 147 143 144 141 138 137 126 97 60 35 26 17 16 25 29 12 0 358 338 315 286 272 264 253 242 240 257 246 228 220 209 199
236 225 178 211 208 233 249 262 273 330 268 276 294 319 292 265 247 179 183 143 110 149 133 137 149 150 150 148 151 159 164 167 167 167 167 169 174 170 164 162 162 161 159 161 162 163 167 168 168 168 168 166 162 161 158 157 158 150 142 145 145 148 154 153 155 149 136 129 124 128 135 119 38 13 7 358 354 356 351 353 330 318 331 329 335 329 307 282 261 252 238 241 247 234 227 225 220
231 226 158 198 201 231 241 262 271 270 258 265 293 295 286 256 187 144 149 124 140 143 137 143 149 152 156 158 158 163 167 164 161 164 168 173 173 166 162 161 163 165 162 165 165 166 171 168 170 172 170 167 161 159 156 153 150 141 143 151 144 146 152 149 155 149 123 107 93 97 56 356 344 345 342 331 334 340 338 338 326 309 316 316 322 330 336 321 284 260 246 239 240 238 234 233 235
220 216 210 242 250 250 236 253 256 258 260 245 284 281 106 137 149 144 150 145 144 142 146 149 151 157 161 163 165 167 165 159 160 165 168 167 164 161 162 166 168 169 166 167 167 166 170 168 169 170 168 166 161 156 152 148 141 137 146 149 137 139 144 135 128 102 56 26 356 334 332 327 326 329 325 325 325 326 327 323 310 302 314 310 300 300 313 324 317 288 264 252 246 243 243 242 243
180 198 225 245 258 271 239 250 252 270 268 225 243 248 133 137 211 175 160 148 149 147 151 154 155 161 164 166 167 166 161 159 162 162 160 160 162 162 164 169 168 166 164 163 167 166 166 166 166 166 164 159 155 152 150 145 138 137 142 140 131 126 122 107 87 61 26 4 344 330 324 319 321 327 328 332 328 326 324 314 300 300 317 316 304 296 298 305 312 307 288 270 260 252 252 255 254
149 173 220 237 251 257 221 249 254 246 268 214 206 212 157 235 287 188 159 151 157 152 155 160 159 162 165 165 161 160 160 159 160 160 162 162 164 167 167 170 164 159 160 161 165 163 161 162 161 160 155 151 152 148 144 140 134 136 136 132 122 103 93 80 62 41 17 359 344 329 317 313 318 328 338 341 335 333 333 328 320 317 325 323 318 313 307 303 296 297 293 283 273 265 264 268 268
162 157 236 233 252 244 210 229 233 197 238 173 170 180 183 215 285 162 154 156 163 156 160 163 160 161 161 158 147 145 152 151 154 160 164 162 160 165 167 166 161 155 156 160 160 158 157 158 158 155 149 148 150 143 135 132 128 129 126 119 102 83 71 49 32 18 12 5 2 354 337 329 331 346 358 358 356 357 359 2 355 348 344 332 329 325 316 307 296 292 289 285 279 273 273 276 276
173 147 250 243 255 246 197 194 176 190 228 145 174 220 176 167 12 168 159 160 163 157 164 164 160 159 153 138 117 93 72 72 73 152 151 154 157 161 165 163 161 155 150 156 158 157 157 156 157 154 149 146 146 142 133 128 125 118 108 100 82 64 46 26 15 14 24 24 23 21 17 18 21 21 19 18 19 18 15 12 6 359 350 338 333 328 320 311 303 298 291 287 283 278 278 279 278
165 147 212 226 232 224 122 160 168 192 213 133 193 239 138 100 81 148 140 135 159 161 164 164 161 157 144 130 124 110 87 80 29 208 138 146 157 158 164 164 163 158 151 155 158 159 158 159 160 151 149 147 142 139 132 129 123 106 92 81 63 39 36 37 46 56 46 37 36 34 37 46 46 32 20 18 18 15 11 7 3 356 346 340 336 330 321 313 308 305 301 296 291 286 278 273 272
154 184 190 184 214 216 3 192 184 197 153 119 206 222 112 85 80 103 113 105 148 177 169 167 166 157 144 143 145 138 128 123 130 175 139 138 157 162 165 166 165 159 153 154 157 158 158 159 157 150 153 152 145 143 138 133 116 97 87 68 42 35 43 49 56 59 52 45 44 41 40 45 42 30 18 15 12 9 5 1 359 351 340 335 331 330 324 318 315 310 308 305 300 297 284 271 269
173 214 187 158 198 210 324 173 213 231 136 138 229 236 116 110 128 135 150 155 161 185 178 173 168 156 148 153 149 140 145 144 136 157 159 135 156 167 168 168 166 160 154 153 153 156 155 155 157 155 159 159 154 150 139 122 105 91 73 53 45 52 58 60 60 59 58 55 54 53 51 50 48 40 29 22 15 10 6 2 360 352 342 337 328 326 325 319 314 309 307 307 305 303 296 284 278
172 198 163 145 195 198 199 167 295 272 179 174 201 240 115 136 159 158 169 171 166 176 176 174 167 153 141 139 148 147 150 153 141 150 163 155 161 169 171 170 165 157 152 151 151 155 154 156 165 165 161 157 150 144 131 111 96 73 53 54 61 67 65 63 63 63 62 60 59 58 59 57 49 43 29 17 13 5 2 360 358 356 352 346 334 326 327 321 315 313 307 303 304 303 300 295 287
155 170 165 168 189 194 207 180 96 219 197 177 184 195 132 154 165 159 177 184 180 177 172 170 149 112 70 68 120 144 137 143 138 138 155 172 174 173 174 170 163 155 152 151 150 157 157 153 157 157 154 147 138 133 124 110 91 70 68 74 78 72 66 65 64 63 62 57 57 55 55 55 42 32 20 6 1 354 354 353 352 356 353 349 339 329 325 320 317 315 310 309 310 306 301 297 293
153 165 169 165 172 192 218 202 187 213 185 172 189 180 147 170 178 172 183 189 192 179 163 144 96 76 62 40 13 98 126 135 137 141 159 175 172 171 174 169 166 160 161 157 150 156 154 144 138 135 139 138 130 121 105 97 95 94 93 90 83 76 72 69 63 61 60 50 46 42 37 34 22 16 7 354 347 342 341 336 339 346 343 342 336 327 322 319 318 312 309 312 310 304 297 289 291
146 155 170 165 177 188 210 211 171 218 195 176 184 158 152 181 185 178 178 182 196 179 137 78 67 72 84 76 340 352 106 116 120 149 163 164 160 161 165 163 160 157 162 161 152 153 147 144 144 137 139 131 119 113 101 99 104 103 99 92 81 72 68 65 61 57 53 46 40 37 32 26 19 8 354 344 339 332 322 322 331 330 330 336 327 322 323 324 325 320 314 312 308 304 296 289 289
139 161 174 178 193 182 196 225 19 252 208 164 130 150 158 187 188 175 167 171 192 168 116 86 87 101 110 127 141 6 22 84 78 178 158 150 147 147 154 152 148 144 147 151 148 147 144 147 146 135 130 121 115 117 113 106 100 101 96 86 79 72 64 61 65 64 58 55 51 45 40 34 25 13 1 351 344 340 330 327 327 317 319 331 320 316 321 321 322 322 319 316 313 309 300 296 297
132 160 169 180 190 192 225 249 10 0 211 164 167 160 148 167 169 152 145 139 104 103 118 119 127 134 136 146 142 131 128 105 146 217 151 147 145 138 143 142 140 142 141 141 139 137 135 134 131 129 129 126 127 124 114 108 100 99 91 81 85 84 78 74 75 76 69 61 53 47 42 35 27 16 4 354 351 351 341 331 325 318 319 324 316 314 318 316 316 316 316 316 313 310 304 302 303
124 145 164 173 163 192 205 195 13 22 48 130 160 146 119 118 92 84 99 105 90 107 120 122 130 138 152 157 141 140 139 139 199 200 148 155 149 135 139 139 141 144 137 132 131 131 134 134 129 130 130 123 123 115 110 119 115 109 108 100 96 95 97 92 83 72 59 51 46 42 36 26 19 14 6 360 358 354 346 337 330 325 322 320 316 318 319 315 314 313 315 316 312 311 309 305 305
153 147 156 143 136 168 186 12 338 28 72 129 145 135 123 169 147 102 100 112 102 118 122 118 128 137 148 142 134 144 143 157 190 173 145 152 144 138 143 140 138 134 127 128 133 135 136 137 131 127 126 123 122 116 113 119 114 114 123 119 108 104 100 85 69 54 44 44 45 42 36 22 12 6 5 8 6 359 352 343 333 325 321 320 319 320 319 318 318 316 318 320 318 316 312 305 305
186 204 200 161 136 119 44 7 314 172 176 140 159 193 158 174 180 145 129 131 114 125 133 136 148 151 155 146 139 148 152 164 171 151 134 132 128 134 137 134 129 122 125 133 136 133 128 128 129 125 122 121 119 118 116 112 111 118 123 118 108 104 90 67 60 56 53 60 56 45 34 18 1 353 356 7 11 5 358 348 341 334 326 324 322 321 319 320 322 322 324 323 322 319 312 306 303
196 191 190 196 150 108 62 10 53 190 212 77 314 237 167 157 193 168 146 145 137 140 140 145 159 164 166 155 145 154 160 156 150 137 120 125 134 133 127 129 128 122 128 131 129 128 126 126 127 123 119 116 114 117 121 119 122 124 119 106 98 102 100 91 87 85 78 68 53 35 21 9 359 356 0 10 12 9 3 357 354 347 340 335 331 328 323 321 322 323 324 321 318 318 315 308 305
183 161 166 185 181 148 123 44 35 353 312 302 122 245 216 171 187 169 153 149 146 150 146 148 163 173 172 161 155 162 164 156 154 145 130 139 140 125 119 122 125 127 129 129 128 126 126 125 123 119 116 114 114 116 118 118 122 123 116 109 106 105 105 104 98 88 73 51 34 25 22 15 15 19 18 17 17 15 12 11 14 11 5 358 348 341 333 325 324 322 321 320 316 316 317 311 310
166 160 162 175 173 160 152 202 264 33 334 240 164 154 219 196 154 166 160 156 159 159 155 156 167 175 174 167 167 169 166 158 153 145 138 142 127 115 118 117 122 130 129 128 128 124 123 121 118 116 114 113 114 117 115 112 113 112 110 107 102 99 100 98 90 78 62 43 30 23 20 15 16 22 24 23 24 23 18 14 17 17 12 6 358 354 347 337 333 330 324 320 318 318 318 313 313
144 147 139 136 145 137 146 238 259 18 276 244 168 163 213 213 158 180 173 170 176 170 164 168 174 180 178 172 170 164 157 152 142 133 137 138 129 125 126 119 120 127 124 124 124 122 121 118 116 113 110 112 115 116 115 112 110 106 103 99 94 96 101 95 81 66 51 38 33 21 15 12 16 24 27 26 27 28 28 22 18 17 13 7 1 359 356 348 342 339 333 325 321 319 318 316 313
131 136 119 103 108 99 87 341 0 256 257 228 150 169 212 228 183 184 184 178 179 176 171 173 177 184 184 175 168 158 147 147 140 134 141 137 129 131 127 119 121 122 117 118 118 116 116 113 112 109 107 111 111 110 110 107 106 102 98 96 93 95 97 86 71 57 41 30 28 18 13 14 20 25 24 22 23 28 31 24 17 14 12 8 1 357 353 348 343 340 337 332 328 323 318 317 313
141 139 132 133 125 117 145 114 149 234 236 159 142 170 196 223 200 181 195 186 181 180 172 173 178 184 185 175 165 156 147 148 143 137 142 135 128 130 120 115 120 119 115 115 113 112 111 107 107 106 104 107 107 107 105 102 101 96 92 92 88 86 83 75 64 54 41 33 27 15 10 11 14 18 16 14 16 22 24 16 10 8 8 8 5 1 357 354 350 346 340 334 331 327 322 320 315
162 149 154 165 165 167 194 191 194 225 218 90 154 174 190 227 194 179 195 192 191 188 173 174 179 179 180 171 157 154 152 149 136 122 127 133 133 135 124 118 119 114 113 114 113 112 110 107 107 105 102 103 104 102 100 99 97 89 85 84 82 79 75 72 69 61 51 44 33 20 16 13 13 16 14 10 11 14 15 9 4 0 359 359 356 353 350 348 348 346 341 335 330 329 327 323 318
176 167 173 181 171 176 195 195 207 227 176 70 128 169 208 223 97 189 200 196 197 191 174 175 177 175 174 162 144 147 149 141 125 111 109 123 131 128 125 124 117 110 111 112 112 112 110 108 108 106 103 102 100 97 96 96 93 89 89 84 79 77 75 73 71 63 56 52 45 35 27 18 16 16 12 12 11 7 7 4 359 354 353 354 350 347 346 344 344 345 345 343 339 334 330 326 321
182 172 181 188 180 187 195 191 206 200 130 86 122 171 221 165 91 255 233 224 197 174 155 162 169 166 160 146 136 139 138 131 126 122 121 123 123 119 119 120 115 113 114 113 113 112 107 104 106 106 103 100 98 96 95 95 93 92 91 85 78 76 75 73 69 64 59 57 52 47 40 29 25 22 15 16 17 11 7 4 1 2 4 3 359 355 351 347 346 345 341 339 337 334 332 329 327
186 150 178 197 187 155 137 180 211 110 122 138 167 192 308 70 342 283 203 166 163 151 145 151 152 146 146 145 148 146 135 132 135 133 130 129 127 124 123 120 117 119 118 116 117 113 108 107 108 107 104 102 100 98 96 95 93 91 86 81 76 73 73 71 67 63 57 55 52 47 45 39 33 31 24 21 22 17 12 8 5 3 2 359 354 350 346 342 341 338 334 331 329 328 330 331 330
152 176 189 179 131 121 127 103 46 52 207 188 165 152 120 197 258 147 147 155 155 150 149 150 147 148 154 155 154 146 133 134 140 136 128 121 116 116 122 120 118 120 119 119 120 116 114 113 111 109 105 102 100 97 96 93 90 87 80 76 74 70 70 67 64 63 61 60 57 49 45 42 36 32 28 23 22 21 19 17 11 3 1 2 359 355 352 348 345 342 339 336 333 332 331 331 330
153 189 176 118 80 88 162 157 141 201 217 203 134 156 168 188 181 144 144 149 151 151 150 149 149 154 158 154 147 142 138 139 135 127 119 113 111 115 123 119 116 120 121 120 121 119 118 116 112 109 104 101 98 95 93 89 85 83 77 74 72 69 70 70 71 73 72 70 65 56 46 42 39 34 33 29 26 27 26 25 23 19 18 18 15 12 7 2 358 357 354 351 349 347 343 338 332
184 169 151 139 180 197 179 173 177 190 211 217 142 151 186 204 169 147 151 156 157 155 152 154 159 159 156 150 146 142 139 135 127 124 121 118 119 121 121 117 118 122 121 119 119 118 117 114 111 107 101 98 96 91 87 82 79 78 75 72 71 71 74 77 77 76 73 69 65 60 52 45 41 38 37 35 34 34 32 31 29 25 23 21 17 13 9 5 4 2 360 359 358 356 354 350 345
126 152 166 190 215 199 184 166 178 188 201 211 182 162 201 210 167 155 164 169 168 164 161 165 168 163 155 150 149 144 137 135 133 135 134 127 126 126 123 120 122 123 121 119 120 118 115 111 106 103 98 94 90 85 82 78 75 76 78 78 77 77 79 79 77 73 70 65 61 59 55 49 45 42 40 39 40 39 36 35 32 27 23 20 15 10 7 5 4 2 1 360 359 358 356 353 352
168 177 188 189 170 182 186 165 78 204 190 183 209 213 196 185 163 166 174 178 177 173 171 173 168 160 155 151 149 144 138 138 137 134 132 127 125 127 128 126 124 123 122 122 120 117 113 109 105 100 95 90 85 81 80 78 78 79 81 82 80 79 78 76 73 70 66 62 58 56 53 49 47 44 41 42 42 40 38 35 32 28 24 19 14 9 6 4 2 2 3 1 359 357 355 352 351
184 191 194 188 168 143 182 197 184 164 189 158 206 227 152 91 176 183 183 184 185 178 170 167 160 153 154 151 147 144 141 139 135 131 128 123 122 126 129 127 124 122 123 122 119 115 111 107 104 98 92 87 83 82 82 82 84 82 81 80 77 75 74 71 69 66 62 59 56 53 50 48 47 44 42 44 43 40 38 36 33 29 24 19 14 9 6 4 2 1 1 1 360 356 353 351 348